Change the Weather History Date:

Thursday, August 29, 2013

  Actual Average Record
Temperature  
Mean Temperature 84 °F -  
Max Temperature 93 °F 89 °F 102 °F (2005)
Min Temperature 75 °F 75 °F 65 °F (1992)
Cooling Degree Days 19    
Growing Degree Days 34 (Base 50)    
Moisture  
Dew Point 74 °F    
Average Humidity 72    
Maximum Humidity 94    
Minimum Humidity 47    
Precipitation  
Precipitation 0.00 in - - ()
Sea Level Pressure  
Sea Level Pressure 30.02 in    
Wind  
Wind Speed 4 mph (SE)    
Max Wind Speed 12 mph    
Max Gust Speed -    
Visibility 10 miles    
Events      
Averages and records for this station are not official NWS values.
T = Trace of Precipitation, MM = Missing Value Source: NWS Daily Summary

Daily Weather History Graph

Daily Weather History Graph

Search for Another Location

Airport or City:

Trip Planner

Search our weather history database for the weather conditions in past years. The results will help you decide how hot, cold, wet, or windy it might be!

Date:

Astronomy

Aug. 29, 2013 Rise Set
Actual Time 7:05 AM CDT 7:52 PM CDT
Civil Twilight 6:41 AM CDT 8:16 PM CDT
Nautical Twilight 6:13 AM CDT 8:44 PM CDT
Astronomical Twilight 5:44 AM CDT 9:13 PM CDT
Moon 1:12 AM CDT (8/29) 3:06 PM CDT (8/29)
Length of Visible Light 13h 34m
Length of Day
12h 46m
Last Quarter, 38% of the Moon is Illuminated
Aug 29
Last Quarter
Sep 5
New
Sep 12
First Quarter
Sep 19
Full
Sep 26
Last Quarter

Hourly Weather History & Observations

Time (CDT) Temp. Heat Index Dew Point Humidity Pressure Visibility Wind Dir Wind Speed Gust Speed Precip Events Conditions
12:53 AM 82.0 °F 89.4 °F 75.9 °F 82% 30.03 in 10.0 mi SSE 5.8 mph - N/A   Clear
1:53 AM 82.0 °F 89.4 °F 75.9 °F 82% 30.02 in 10.0 mi South 3.5 mph - N/A   Clear
2:53 AM 81.0 °F 87.3 °F 75.9 °F 85% 30.02 in 10.0 mi SSE 3.5 mph - N/A   Scattered Clouds
3:53 AM 80.1 °F 85.4 °F 75.9 °F 87% 30.03 in 10.0 mi South 3.5 mph - N/A   Clear
4:53 AM 79.0 °F - 75.0 °F 88% 30.04 in 10.0 mi Calm Calm - N/A   Partly Cloudy
5:53 AM 77.0 °F - 75.0 °F 94% 30.04 in 10.0 mi South 3.5 mph - N/A   Clear
6:53 AM 75.9 °F - 73.9 °F 94% 30.04 in 10.0 mi Calm Calm - N/A   Clear
7:53 AM 79.0 °F - 75.9 °F 90% 30.06 in 10.0 mi Calm Calm - N/A   Clear
8:53 AM 84.0 °F 94.8 °F 78.1 °F 82% 30.06 in 10.0 mi Calm Calm - N/A   Clear
9:16 AM 86.0 °F 96.9 °F 77.0 °F 74% 30.06 in 10.0 mi ENE 4.6 mph - N/A   Mostly Cloudy
9:26 AM 86.0 °F 95.1 °F 75.2 °F 70% 30.07 in 10.0 mi Calm Calm - N/A   Scattered Clouds
9:53 AM 86.0 °F 96.0 °F 75.9 °F 72% 30.07 in 10.0 mi ESE 4.6 mph - N/A   Clear
10:53 AM 88.0 °F 96.5 °F 73.9 °F 63% 30.07 in 10.0 mi Variable 5.8 mph - N/A   Clear
11:53 AM 90.0 °F 96.4 °F 71.1 °F 54% 30.06 in 10.0 mi East 5.8 mph - N/A   Clear
12:53 PM 91.0 °F 96.6 °F 70.0 °F 50% 30.05 in 10.0 mi East 5.8 mph - N/A   Clear
1:53 PM 90.0 °F 96.9 °F 72.0 °F 55% 30.03 in 10.0 mi ESE 6.9 mph - N/A   Clear
2:53 PM 90.0 °F 99.0 °F 73.9 °F 59% 30.02 in 10.0 mi ESE 5.8 mph - N/A   Clear
3:53 PM 93.0 °F 99.0 °F 70.0 °F 47% 29.99 in 10.0 mi SE 11.5 mph - N/A   Clear
4:53 PM 91.0 °F 98.2 °F 72.0 °F 53% 29.97 in 10.0 mi SE 10.4 mph - N/A   Clear
5:53 PM 89.1 °F 99.1 °F 75.0 °F 63% 29.97 in 10.0 mi SE 11.5 mph - N/A   Clear
6:53 PM 87.1 °F 96.3 °F 75.0 °F 67% 29.97 in 10.0 mi SSE 6.9 mph - N/A   Clear
7:53 PM 84.9 °F 92.1 °F 73.9 °F 69% 29.97 in 10.0 mi SSE 6.9 mph - N/A   Clear
8:53 PM 84.0 °F 91.2 °F 73.9 °F 72% 29.98 in 10.0 mi SSE 5.8 mph - N/A   Clear
9:53 PM 84.0 °F 90.2 °F 73.0 °F 69% 29.99 in 10.0 mi South 5.8 mph - N/A   Clear
10:53 PM 82.9 °F 89.4 °F 73.9 °F 74% 29.99 in 10.0 mi South 5.8 mph - N/A   Clear
11:53 PM 82.0 °F 87.9 °F 73.9 °F 76% 29.98 in 10.0 mi SSW 3.5 mph - N/A   Clear